[[{"header":{"parameterUnit":"m.s-1","parameterCategory":1,"la1":30.2991,"la2":30.254,"lo1":-89.0895,"lo2":-89.0444,"dy":0.0017,"dx":0.0017,"nx":28,"ny":28,"refTime":"2025-04-10T21:00:00:Z","depth":0,"parameterNumber":2,"parameterNumberName":"U-component_of_WINDS"},"data":[0,0,0,0,0,0,0,0,0,0,0,0,0,0,0,0,0,0,0,0,0,0,0,0,0,0,0,0,0,0,0,0,0,0,0,0,0,0,0,0,0,0,0,0,0,0,0,0,0,0,0,0,0,0,0,0,0,0,1.1049,1.1049,0,1.1028,1.1028,1.1028,1.1035,1.1036,1.1036,1.1037,1.1011,1.101,1.1009,0,0,0,0,0,0,0,0,0,0,0,0,0,1.1093,1.1092,1.1049,1.1049,1.1049,1.1028,1.1028,1.1028,1.1035,1.1036,1.1036,1.1037,1.1012,1.101,1.1009,0,0,0,0,0,0,0,0,0,0,0,0,0,1.1073,1.1092,1.1049,1.105,1.105,1.1028,1.1028,1.1027,1.1035,1.1036,1.1037,1.1037,1.1012,1.1011,1.1009,1.0984,0,0,1.1004,1.1003,0,0,0,0,0,0,0,0,1.1074,1.1071,1.105,1.105,1.105,1.1035,1.1034,1.1013,1.1035,1.1041,1.1037,1.1038,1.1018,1.1016,1.1011,1.0983,1.0981,1.1004,1.1003,1.1002,1.1001,0,0,0,0,0,0,0,1.1075,1.1072,1.1041,1.105,1.105,1.1051,1.1049,1.103,1.1026,1.104,1.1041,1.1038,1.1018,1.1012,1.101,1.0981,1.1004,1.1002,1.1001,1.1,1.093,1.093,0,0,0,0,0,0,1.1077,1.1073,1.1041,1.104,1.1064,1.1049,1.1047,1.1039,1.1026,1.1025,1.1038,1.1039,1.1015,1.1012,1.1009,1.0978,1.1002,1.1,1.0999,1.0931,1.093,1.0929,0,0,0,0,0,0,1.1078,1.1074,1.1042,1.1057,1.1053,1.1048,1.1039,1.1038,1.1032,1.1024,1.1023,1.1032,1.1015,1.1012,1.099,1.0977,1.0999,1.0998,1.0932,1.0931,1.093,1.0915,0,0,0,0,0,0,1.108,1.1075,1.1066,1.1057,1.1052,1.1024,1.1038,1.1037,1.103,1.1031,1.1019,1.1017,1.1016,1.0993,1.0988,1.0975,1.0997,1.0933,1.0932,1.093,1.0917,1.0914,1.0911,0,0,0,0,0,1.1081,1.1062,1.1065,1.1061,1.1041,1.1024,1.1021,1.102,1.1029,1.1019,1.1014,1.1018,1.098,1.099,1.0986,1.0972,1.0934,1.0932,1.093,1.0918,1.0914,1.0911,0,0,0,0,0,0,1.1068,1.1061,1.1064,1.1042,1.1033,1.1025,1.1012,1.1016,1.1004,1.1006,1.1004,1.1002,1.0979,1.0974,1.0986,1.0946,1.0958,1.0955,1.095,1.0946,1.0944,1.0944,1.0995,0,0,0,0,0,1.1063,1.105,1.1044,1.1025,1.1021,1.1018,1.101,1.1011,1.1001,1.0997,1.099,1.098,1.0966,1.0956,1.0943,1.0917,1.0913,1.0905,1.0902,1.09,1.0896,1.0881,1.0876,1.0923,1.0923,1.0923,0,0,1.1051,1.1046,1.1038,1.1022,1.1016,1.1002,1.1014,1.0999,1.0988,1.0994,1.0973,1.0968,1.0957,1.0933,1.0922,1.0927,1.0883,1.0897,1.0895,1.0893,1.0878,1.0874,1.087,1.0922,1.0922,1.0922,0,0,1.1022,1.1018,1.1001,1.0995,1.0985,1.0983,1.0979,1.0971,1.0968,1.0947,1.0952,1.0938,1.0914,1.0905,1.0898,1.0867,1.087,1.0863,1.0846,1.0831,1.0828,1.0824,1.0811,1.0807,1.086,1.086,1.086,0,1.1008,1.0989,1.0991,1.0976,1.0968,1.0975,1.0957,1.0951,1.0937,1.0931,1.0938,1.0908,1.09,1.0874,1.0866,1.0861,1.0855,1.0863,1.0828,1.0825,1.0822,1.0809,1.0805,1.0859,1.0859,1.0859,1.086,0,1.0971,1.0957,1.0945,1.0932,1.0924,1.0907,1.0906,1.0897,1.0899,1.0896,1.0874,1.0866,1.0851,1.0845,1.0846,1.0819,1.0822,1.0829,1.084,1.0816,1.0805,1.08,1.0858,1.0858,1.0859,1.0859,0,0,1.0931,1.0922,1.0917,1.0911,1.0902,1.089,1.0874,1.086,1.0852,1.0843,1.0827,1.0807,1.0814,1.0805,1.0806,1.0793,1.0767,1.0801,1.0801,1.0793,1.0734,1.0727,1.0721,1.077,1.0769,1.0768,1.0734,0,1.09,1.0872,1.0874,1.0847,1.0833,1.084,1.0826,1.0818,1.0815,1.0803,1.0799,1.0784,1.0795,1.079,1.0778,1.0773,1.0754,1.0775,1.0753,1.0752,1.0753,1.0715,1.0708,1.0675,1.0729,1.0729,1.0728,0,1.0859,1.0849,1.0821,1.0814,1.0808,1.0795,1.0782,1.0771,1.0762,1.0761,1.0752,1.0755,1.0737,1.0751,1.0725,1.074,1.0731,1.0727,1.0726,1.0722,1.0737,1.0707,1.0665,1.0659,1.0721,1.0722,1.0722,0,1.083,1.081,1.079,1.0785,1.0777,1.0767,1.0763,1.0756,1.0747,1.0736,1.073,1.0717,1.0709,1.0699,1.0697,1.0708,1.0671,1.0685,1.0667,1.0667,1.0656,1.0657,1.061,1.0656,1.0656,1.0656,1.0656,0,1.0793,1.0774,1.0777,1.0764,1.0744,1.0747,1.0726,1.0723,1.0716,1.0702,1.0709,1.0695,1.0696,1.0682,1.0681,1.0659,1.0656,1.0653,1.0652,1.065,1.065,1.0643,1.0644,1.0655,1.0655,1.0655,1.0655,0,1.0755,1.0757,1.0735,1.073,1.0728,1.0713,1.0708,1.0695,1.0694,1.0676,1.0672,1.067,1.0654,1.0653,1.0634,1.0633,1.0605,1.0609,1.0608,1.0608,1.0589,1.059,1.0533,1.0525,1.0579,1.0579,1.0578,0,1.073,1.0716,1.071,1.0702,1.0698,1.0684,1.0676,1.0679,1.067,1.066,1.0648,1.0633,1.0621,1.0595,1.059,1.0576,1.0577,1.0558,1.0574,1.0573,1.0573,1.0573,1.0571,1.0554,1.0553,1.0553,1.0552,0,1.0685,1.0686,1.0675,1.0664,1.0654,1.0645,1.0637,1.063,1.0632,1.0621,1.0605,1.0596,1.0578,1.0562,1.0548,1.0543,1.0547,1.0548,1.0543,1.0539,1.0538,1.0536,1.0597,1.0548,1.0549,1.0549,1.0549,1.0549,1.0651,1.0639,1.0632,1.0619,1.0614,1.0606,1.0594,1.0592,1.058,1.0565,1.0568,1.055,1.0542,1.0524,1.0517,1.0503,1.0508,1.0501,1.0499,1.0496,1.0493,1.0544,1.05,1.05,1.0501,1.0501,1.0501,0,1.0603,1.06,1.0589,1.0577,1.0567,1.0575,1.0566,1.0556,1.0541,1.0534,1.0522,1.0504,1.0489,1.0484,1.0469,1.0458,1.046,1.0454,1.0453,1.0451,1.049,1.0495,1.0453,1.0453,1.0453,1.0453,1.0453,1.0453,1.0577,1.0556,1.0557,1.0534,1.0531,1.0514,1.0508,1.0501,1.0495,1.0474,1.0462,1.046,1.0454,1.0439,1.0425,1.0424,1.0417,1.0409,1.0409,1.0444,1.0449,1.0453,1.0458,1.0409,1.0409,1.0371,1.0371,1.037]},{"header":{"parameterUnit":"m.s-1","parameterCategory":1,"la1":30.2991,"la2":30.254,"lo1":-89.0895,"lo2":-89.0444,"dy":0.0017,"dx":0.0017,"nx":28,"ny":28,"refTime":"2025-04-10T21:00:00:Z","depth":0,"parameterNumber":3,"parameterNumberName":"V-component_of_WINDS"},"data":[0,0,0,0,0,0,0,0,0,0,0,0,0,0,0,0,0,0,0,0,0,0,0,0,0,0,0,0,0,0,0,0,0,0,0,0,0,0,0,0,0,0,0,0,0,0,0,0,0,0,0,0,0,0,0,0,0,0,-4.5403,-4.5404,0,-4.5535,-4.5537,-4.5538,-4.5474,-4.547,-4.5467,-4.5463,-4.5598,-4.5605,-4.5611,0,0,0,0,0,0,0,0,0,0,0,0,0,-4.5091,-4.5097,-4.5402,-4.5404,-4.5406,-4.5535,-4.5537,-4.5539,-4.5474,-4.547,-4.5466,-4.5462,-4.5596,-4.5604,-4.5612,0,0,0,0,0,0,0,0,0,0,0,0,0,-4.5226,-4.5099,-4.5402,-4.5389,-4.5389,-4.5535,-4.5537,-4.5539,-4.5475,-4.547,-4.5465,-4.546,-4.5593,-4.5603,-4.5613,-4.5779,0,0,-4.5644,-4.5649,0,0,0,0,0,0,0,0,-4.5218,-4.5237,-4.5389,-4.539,-4.5391,-4.5483,-4.5477,-4.562,-4.5476,-4.5442,-4.5463,-4.5457,-4.5564,-4.5576,-4.5612,-4.5785,-4.5791,-4.5645,-4.5651,-4.5656,-4.5659,0,0,0,0,0,0,0,-4.5209,-4.5231,-4.5455,-4.5392,-4.5393,-4.5376,-4.539,-4.5503,-4.553,-4.5445,-4.5441,-4.5457,-4.5563,-4.5603,-4.5615,-4.5793,-4.5645,-4.5654,-4.566,-4.5664,-4.6108,-4.6114,0,0,0,0,0,0,-4.52,-4.5224,-4.5451,-4.5459,-4.529,-4.5386,-4.5401,-4.5458,-4.5529,-4.5535,-4.5462,-4.5454,-4.5588,-4.5603,-4.5619,-4.5818,-4.5656,-4.5665,-4.5671,-4.6103,-4.611,-4.6116,0,0,0,0,0,0,-4.5194,-4.5221,-4.5445,-4.534,-4.5368,-4.5397,-4.5462,-4.5464,-4.5503,-4.5541,-4.5546,-4.5497,-4.5584,-4.5605,-4.574,-4.5822,-4.567,-4.5679,-4.6096,-4.6105,-4.6113,-4.6218,0,0,0,0,0,0,-4.5185,-4.5219,-4.5283,-4.5342,-4.5373,-4.5564,-4.5467,-4.547,-4.5521,-4.5512,-4.5576,-4.5581,-4.5582,-4.5725,-4.575,-4.5833,-4.5687,-4.6089,-4.61,-4.611,-4.6207,-4.6229,-4.6247,0,0,0,0,0,-4.5174,-4.5307,-4.5286,-4.5314,-4.5454,-4.5569,-4.5587,-4.5585,-4.5528,-4.5592,-4.5616,-4.5579,-4.5809,-4.5739,-4.5767,-4.5855,-4.6084,-4.6097,-4.6109,-4.6198,-4.6224,-4.6247,0,0,0,0,0,0,-4.5256,-4.5314,-4.5292,-4.5448,-4.5504,-4.5558,-4.5639,-4.5613,-4.5687,-4.5675,-4.5669,-4.5684,-4.5824,-4.5853,-4.5774,-4.6019,-4.5937,-4.5956,-4.5995,-4.6021,-4.6041,-4.6031,-4.5695,0,0,0,0,0,-4.5292,-4.5381,-4.5427,-4.556,-4.5589,-4.561,-4.566,-4.5654,-4.5711,-4.5735,-4.5769,-4.5826,-4.5911,-4.5967,-4.6048,-4.621,-4.6223,-4.6284,-4.6304,-4.6321,-4.6338,-4.6426,-4.6454,-4.6158,-4.6158,-4.6158,0,0,-4.5367,-4.541,-4.5467,-4.5578,-4.562,-4.5713,-4.563,-4.5731,-4.58,-4.575,-4.588,-4.5907,-4.597,-4.612,-4.6188,-4.6148,-4.6422,-4.6337,-4.635,-4.6358,-4.6442,-4.647,-4.6495,-4.6167,-4.6165,-4.6164,0,0,-4.5552,-4.5594,-4.5709,-4.5754,-4.582,-4.5833,-4.586,-4.5919,-4.5935,-4.6065,-4.603,-4.6111,-4.6257,-4.6304,-4.6347,-4.655,-4.6519,-4.6576,-4.6682,-4.6768,-4.6792,-4.6812,-4.6885,-4.6912,-4.6592,-4.6593,-4.6593,0,-4.5638,-4.5776,-4.5772,-4.5876,-4.5926,-4.5885,-4.6002,-4.6046,-4.6135,-4.617,-4.6124,-4.6307,-4.6347,-4.6507,-4.6557,-4.6593,-4.6624,-4.6569,-4.6789,-4.6809,-4.6829,-4.6898,-4.6926,-4.6599,-4.6598,-4.6598,-4.6597,0,-4.5879,-4.5975,-4.606,-4.6148,-4.6207,-4.6317,-4.6329,-4.639,-4.6378,-4.6395,-4.6528,-4.6574,-4.6664,-4.6701,-4.669,-4.686,-4.6834,-4.6789,-4.6707,-4.6863,-4.6929,-4.6955,-4.6609,-4.6606,-4.6604,-4.6603,0,0,-4.6119,-4.6203,-4.6235,-4.6274,-4.6344,-4.6418,-4.6526,-4.6614,-4.6667,-4.6729,-4.682,-4.6944,-4.6903,-4.6952,-4.6946,-4.7022,-4.7181,-4.6968,-4.6969,-4.7007,-4.7372,-4.7406,-4.7437,-4.716,-4.7165,-4.7169,-4.7366,0,-4.631,-4.65,-4.6499,-4.6675,-4.6764,-4.6727,-4.6821,-4.6874,-4.6893,-4.6971,-4.6991,-4.708,-4.7019,-4.7048,-4.7122,-4.7146,-4.7254,-4.7132,-4.7245,-4.7249,-4.7231,-4.7471,-4.7507,-4.7691,-4.7392,-4.7396,-4.7399,0,-4.6558,-4.663,-4.6815,-4.6872,-4.6909,-4.6994,-4.7075,-4.715,-4.7209,-4.7217,-4.7272,-4.7255,-4.7365,-4.7279,-4.743,-4.7347,-4.7393,-4.7412,-4.7419,-4.743,-4.7334,-4.749,-4.775,-4.7778,-4.7439,-4.7436,-4.7433,0,-4.6717,-4.6859,-4.6988,-4.7023,-4.7093,-4.7153,-4.7185,-4.7239,-4.7292,-4.7362,-4.7396,-4.7478,-4.7523,-4.7586,-4.7591,-4.7528,-4.7744,-4.7659,-4.7754,-4.7754,-4.7802,-4.7799,-4.8075,-4.783,-4.783,-4.7829,-4.7829,0,-4.693,-4.7045,-4.706,-4.714,-4.7267,-4.7265,-4.7391,-4.7417,-4.7465,-4.7549,-4.7521,-4.76,-4.7601,-4.7682,-4.7687,-4.7812,-4.7832,-4.7841,-4.7842,-4.7845,-4.7844,-4.7876,-4.7863,-4.7837,-4.7835,-4.7834,-4.7832,0,-4.7129,-4.7144,-4.7282,-4.7337,-4.7354,-4.7445,-4.7492,-4.7568,-4.7583,-4.769,-4.7715,-4.774,-4.7834,-4.7845,-4.7953,-4.7956,-4.8107,-4.8093,-4.8088,-4.8086,-4.8181,-4.8173,-4.8488,-4.8529,-4.8257,-4.8259,-4.8261,0,-4.7265,-4.7353,-4.7417,-4.7472,-4.7507,-4.7595,-4.7649,-4.7649,-4.7707,-4.7781,-4.7848,-4.7939,-4.8012,-4.8163,-4.819,-4.8274,-4.8262,-4.8366,-4.8274,-4.8275,-4.8265,-4.826,-4.8269,-4.8385,-4.8388,-4.839,-4.8392,0,-4.7506,-4.7509,-4.7588,-4.767,-4.7736,-4.78,-4.7861,-4.7907,-4.7915,-4.798,-4.8076,-4.8133,-4.8244,-4.8335,-4.8417,-4.8449,-4.8423,-4.8421,-4.8447,-4.8452,-4.8446,-4.8452,-4.8138,-4.8414,-4.8412,-4.841,-4.8409,-4.8408,-4.7678,-4.7754,-4.7812,-4.7901,-4.7947,-4.8004,-4.8078,-4.8104,-4.8184,-4.8275,-4.827,-4.8376,-4.8432,-4.854,-4.8578,-4.866,-4.8626,-4.8664,-4.8674,-4.8684,-4.8694,-4.8432,-4.8675,-4.8674,-4.8674,-4.8673,-4.8673,0,-4.7918,-4.7953,-4.8035,-4.8121,-4.8191,-4.816,-4.8225,-4.8286,-4.838,-4.8435,-4.8508,-4.8618,-4.8706,-4.874,-4.8826,-4.8886,-4.8876,-4.8908,-4.8904,-4.8912,-4.872,-4.8688,-4.8915,-4.8915,-4.8915,-4.8915,-4.8915,-4.8915,-4.8051,-4.8179,-4.8188,-4.8338,-4.8372,-4.8476,-4.8517,-4.8569,-4.8613,-4.8738,-4.8811,-4.8833,-4.888,-4.8969,-4.9049,-4.9056,-4.909,-4.9128,-4.9131,-4.895,-4.8926,-4.8903,-4.8873,-4.9135,-4.9135,-4.9317,-4.9318,-4.932]}]]